,,Stat5,,Stat1,,Stat2,,Stat3,,Stat4,,Wind1,,Wind1,
time,status,PA1M_AVG,status,PR1M_SUM,status,RH1M_AVG,status,SR1M_AVG,status,TA1M_AVG,status,W1dAve1m,status,W1sAve1m,
2000-10-29, 00:00:00,VALID,918.461,VALID,0,VALID,97.8894,VALID,-0.0849042,VALID,19.9582,VALID,30,VALID,1.08008,
2000-10-29, 00:01:00,VALID,918.461,VALID,0,VALID,97.7495,VALID,-0.101885,VALID,19.9358,VALID,298,VALID,1.17433,
2000-10-29, 00:02:00,VALID,918.442,VALID,0,VALID,97.7851,VALID,-0.0679233,VALID,19.9291,VALID,8,VALID,0.54223,
2000-10-29, 00:03:00,VALID,918.45,VALID,0,VALID,97.9225,VALID,-0.0849042,VALID,19.9418,VALID,102,VALID,0.567845,
2000-10-29, 00:04:00,VALID,918.448,VALID,0,VALID,97.9263,VALID,-0.101885,VALID,19.9192,VALID,1,VALID,0.400338,
2000-10-29, 00:05:00,VALID,918.46,VALID,0,VALID,97.8474,VALID,-0.0509425,VALID,19.8968,VALID,304,VALID,0.799831,
2000-10-29, 00:06:00,VALID,918.439,VALID,0,VALID,97.8538,VALID,-0.101885,VALID,19.8801,VALID,313,VALID,0.302849,
2000-10-29, 00:07:00,VALID,918.457,VALID,0,VALID,97.9186,VALID,-0.0509425,VALID,19.8734,VALID,61,VALID,0.310177,
2000-10-29, 00:08:00,VALID,918.45,VALID,0,VALID,98.0242,VALID,-0.0679233,VALID,19.9025,VALID,89,VALID,0.0442708,
2000-10-29, 00:09:00,VALID,918.469,VALID,0,VALID,98.0064,VALID,-0.0849042,VALID,19.8998,VALID,90,VALID,0,
2000-10-29, 00:10:00,VALID,918.475,VALID,0,VALID,98.0458,VALID,-0.101885,VALID,19.9135,VALID,72,VALID,0.261402,
2000-10-29, 00:11:00,VALID,918.467,VALID,0,VALID,97.9848,VALID,-0.101885,VALID,19.8968,VALID,328,VALID,0.780664,
2000-10-29, 00:12:00,VALID,918.479,VALID,0,VALID,97.8703,VALID,-0.101885,VALID,19.8478,VALID,359,VALID,1.50521,
2000-10-29, 00:13:01,VALID,918.494,VALID,0,VALID,97.9046,VALID,-0.0849042,VALID,19.864,VALID,93,VALID,1.25234,
2000-10-29, 00:14:00,VALID,918.513,VALID,0,VALID,98.0255,VALID,-0.0849042,VALID,19.8866,VALID,128,VALID,0.620683,
2000-10-29, 00:15:00,VALID,918.528,VALID,0,VALID,98.056,VALID,-0.101885,VALID,19.8841,VALID,230,VALID,0.391016,
2000-10-29, 00:16:00,VALID,918.535,VALID,0,VALID,98.0471,VALID,-0.0849042,VALID,19.8672,VALID,152,VALID,0.463341,
2000-10-29, 00:17:00,VALID,918.55,VALID,0,VALID,98.1539,VALID,0,VALID,19.899,VALID,113,VALID,0.376367,
2000-10-29, 00:18:00,VALID,918.572,VALID,0,VALID,98.2111,VALID,0,VALID,19.9279,VALID,104,VALID,0.905222,
2000-10-29, 00:19:00,VALID,918.563,VALID,0,VALID,98.1971,VALID,0,VALID,19.9182,VALID,101,VALID,1.03145,
2000-10-29, 00:20:00,VALID,918.535,VALID,0,VALID,98.206,VALID,0,VALID,19.9149,VALID,78,VALID,0.753405,
2000-10-29, 00:21:00,VALID,918.534,VALID,0,VALID,98.075,VALID,0.0169808,VALID,19.8598,VALID,84,VALID,1.1625,
2000-10-29, 00:22:00,VALID,918.521,VALID,0,VALID,98.0165,VALID,0,VALID,19.8471,VALID,67,VALID,0.954975,
2000-10-29, 00:23:00,VALID,918.522,VALID,0,VALID,98.0407,VALID,0.0169808,VALID,19.8568,VALID,164,VALID,0.200391,
2000-10-29, 00:24:00,VALID,918.513,VALID,0,VALID,98.0712,VALID,0.0339617,VALID,19.863,VALID,275,VALID,0.535657,
2000-10-29, 00:25:01,VALID,918.514,VALID,0,VALID,98.0178,VALID,0.0169808,VALID,19.8399,VALID,303,VALID,0.664453,
2000-10-29, 00:26:00,VALID,918.486,VALID,0,VALID,98.1221,VALID,0.0169808,VALID,19.8727,VALID,38,VALID,0.262747,
2000-10-29, 00:27:00,VALID,918.48,VALID,0,VALID,98.1869,VALID,0,VALID,19.8826,VALID,120,VALID,0.577539,
2000-10-29, 00:28:00,VALID,918.479,VALID,0,VALID,98.2416,VALID,0,VALID,19.8886,VALID,112,VALID,0.218349,
2000-10-29, 00:29:00,VALID,918.462,VALID,0,VALID,98.2238,VALID,0,VALID,19.8953,VALID,128,VALID,0,
2000-10-29, 00:30:00,VALID,918.452,VALID,0,VALID,98.2721,VALID,0,VALID,19.9015,VALID,134,VALID,0,
2000-10-29, 00:31:00,VALID,918.433,VALID,0,VALID,98.3116,VALID,-0.0169808,VALID,19.9144,VALID,31,VALID,0.461914,
2000-10-29, 00:32:00,VALID,918.421,VALID,0,VALID,98.2111,VALID,0,VALID,19.9052,VALID,295,VALID,0.533654,
2000-10-29, 00:33:00,VALID,918.389,VALID,0,VALID,98.1564,VALID,0,VALID,19.8796,VALID,329,VALID,0.429883,
2000-10-29, 00:34:00,VALID,918.371,VALID,0,VALID,98.2009,VALID,0,VALID,19.8854,VALID,351,VALID,0.0738076,
2000-10-29, 00:35:00,VALID,918.359,VALID,0,VALID,98.2493,VALID,0,VALID,19.8888,VALID,323,VALID,0,
2000-10-29, 00:36:00,VALID,918.323,VALID,0,VALID,98.2175,VALID,0,VALID,19.8791,VALID,4,VALID,0.169471,
2000-10-29, 00:37:01,VALID,918.298,VALID,0.2,VALID,98.2276,VALID,0,VALID,19.8692,VALID,79,VALID,0.0386719,
2000-10-29, 00:38:00,VALID,918.295,VALID,0,VALID,98.2454,VALID,0,VALID,19.8727,VALID,39,VALID,0.103824,
2000-10-29, 00:39:00,VALID,918.271,VALID,0,VALID,98.1895,VALID,0,VALID,19.8404,VALID,311,VALID,0.0669922,
2000-10-29, 00:40:00,VALID,918.251,VALID,0,VALID,98.1539,VALID,0.0169808,VALID,19.815,VALID,328,VALID,0.435897,
2000-10-29, 00:41:00,VALID,918.226,VALID,0,VALID,98.2086,VALID,0.0169808,VALID,19.8145,VALID,344,VALID,0.113672,
2000-10-29, 00:42:00,VALID,918.211,VALID,0,VALID,98.2124,VALID,0,VALID,19.8083,VALID,22,VALID,0.666735,
2000-10-29, 00:43:00,VALID,918.181,VALID,0,VALID,98.22,VALID,0.0169808,VALID,19.7857,VALID,325,VALID,0.376758,
2000-10-29, 00:44:00,VALID,918.17,VALID,0,VALID,98.2505,VALID,0.0169808,VALID,19.8014,VALID,313,VALID,0.349159,
2000-10-29, 00:45:00,VALID,918.164,VALID,0,VALID,98.276,VALID,0.0169808,VALID,19.8081,VALID,43,VALID,0.445313,
2000-10-29, 00:46:00,VALID,918.156,VALID,0,VALID,98.3116,VALID,0.0339617,VALID,19.8111,VALID,34,VALID,0.703536,
2000-10-29, 00:47:00,VALID,918.15,VALID,0,VALID,98.3103,VALID,-0.0169808,VALID,19.8051,VALID,113,VALID,0.229492,
2000-10-29, 00:48:00,VALID,918.154,VALID,0,VALID,98.2912,VALID,-0.0169808,VALID,19.7852,VALID,114,VALID,0.207332,
2000-10-29, 00:49:01,VALID,918.163,VALID,0,VALID,98.2671,VALID,-0.0169808,VALID,19.7956,VALID,23,VALID,0.625391,
2000-10-29, 00:50:00,VALID,918.178,VALID,0,VALID,98.2035,VALID,-0.0169808,VALID,19.786,VALID,9,VALID,0.915913,
2000-10-29, 00:51:00,VALID,918.179,VALID,0,VALID,98.1246,VALID,-0.0169808,VALID,19.7703,VALID,20,VALID,0.661914,
2000-10-29, 00:52:00,VALID,918.197,VALID,0,VALID,98.1501,VALID,-0.0169808,VALID,19.7631,VALID,98,VALID,0,
2000-10-29, 00:53:00,VALID,918.213,VALID,0,VALID,98.2454,VALID,-0.0339617,VALID,19.7795,VALID,105,VALID,0,
2000-10-29, 00:54:00,VALID,918.212,VALID,0,VALID,98.2798,VALID,-0.0339617,VALID,19.7989,VALID,58,VALID,0,
2000-10-29, 00:55:00,VALID,918.194,VALID,0,VALID,98.3039,VALID,-0.0169808,VALID,19.8121,VALID,316,VALID,0,
2000-10-29, 00:56:00,VALID,918.194,VALID,0,VALID,98.2874,VALID,-0.0339617,VALID,19.8021,VALID,291,VALID,0,
2000-10-29, 00:57:00,VALID,918.173,VALID,0,VALID,98.2734,VALID,-0.0339617,VALID,19.7894,VALID,304,VALID,0,
2000-10-29, 00:58:00,VALID,918.167,VALID,0,VALID,98.3154,VALID,-0.0169808,VALID,19.8026,VALID,315,VALID,0,
2000-10-29, 00:59:00,VALID,918.149,VALID,0,VALID,98.3256,VALID,-0.0509425,VALID,19.7897,VALID,355,VALID,0,
2000-10-29, 01:00:00,VALID,918.157,VALID,0,VALID,98.3688,VALID,-0.0169808,VALID,19.78,VALID,89,VALID,0.00120192,
2000-10-29, 01:01:01,VALID,918.151,VALID,0,VALID,98.4553,VALID,-0.0169808,VALID,19.8053,VALID,96,VALID,0.633984,
2000-10-29, 01:02:00,VALID,918.155,VALID,0,VALID,98.4832,VALID,-0.0679233,VALID,19.8354,VALID,157,VALID,0.197163,
2000-10-29, 01:03:00,VALID,918.16,VALID,0,VALID,98.4603,VALID,-0.0339617,VALID,19.825,VALID,94,VALID,0.227344,
2000-10-29, 01:04:00,VALID,918.178,VALID,0,VALID,98.5036,VALID,-0.0509425,VALID,19.8148,VALID,95,VALID,0.267228,
2000-10-29, 01:05:00,VALID,918.175,VALID,0,VALID,98.4769,VALID,-0.101885,VALID,19.8118,VALID,177,VALID,0.298828,
2000-10-29, 01:06:00,VALID,918.145,VALID,0,VALID,98.4591,VALID,-0.0679233,VALID,19.8053,VALID,99,VALID,0.53639,
2000-10-29, 01:07:00,VALID,918.13,VALID,0,VALID,98.5455,VALID,-0.0169808,VALID,19.8247,VALID,184,VALID,0.0947266,
2000-10-29, 01:08:00,VALID,918.11,VALID,0,VALID,98.543,VALID,-0.0339617,VALID,19.8314,VALID,255,VALID,0.585537,
2000-10-29, 01:09:00,VALID,918.082,VALID,0,VALID,98.3383,VALID,-0.0679233,VALID,19.7641,VALID,6,VALID,1.49785,
2000-10-29, 01:10:00,VALID,918.062,VALID,0,VALID,98.3077,VALID,-0.0169808,VALID,19.7407,VALID,21,VALID,0.998972,
2000-10-29, 01:11:00,VALID,918.024,VALID,0,VALID,98.2276,VALID,-0.0169808,VALID,19.7022,VALID,310,VALID,0.269922,
2000-10-29, 01:12:00,VALID,918,VALID,0,VALID,98.2734,VALID,-0.0339617,VALID,19.702,VALID,117,VALID,0.799079,
2000-10-29, 01:13:01,VALID,917.959,VALID,0,VALID,98.3281,VALID,0,VALID,19.7179,VALID,102,VALID,0.966211,
2000-10-29, 01:14:00,VALID,917.957,VALID,0,VALID,98.3548,VALID,0,VALID,19.7308,VALID,104,VALID,0.749178,
2000-10-29, 01:15:00,VALID,917.955,VALID,0,VALID,98.384,VALID,0,VALID,19.7372,VALID,71,VALID,0.520703,
2000-10-29, 01:16:00,VALID,917.942,VALID,0,VALID,98.3065,VALID,0,VALID,19.7273,VALID,279,VALID,0.715545,
2000-10-29, 01:17:01,VALID,917.974,VALID,0,VALID,98.1997,VALID,0,VALID,19.6858,VALID,310,VALID,0.716747,
2000-10-29, 01:18:00,VALID,917.974,VALID,0,VALID,98.2022,VALID,0,VALID,19.6793,VALID,349,VALID,0.392064,
2000-10-29, 01:19:01,VALID,917.949,VALID,0,VALID,98.281,VALID,-0.0339617,VALID,19.6791,VALID,219,VALID,0.530078,
2000-10-29, 01:20:00,VALID,917.941,VALID,0,VALID,98.3167,VALID,-0.0169808,VALID,19.6856,VALID,115,VALID,0.797877,
2000-10-29, 01:21:01,VALID,917.908,VALID,0,VALID,98.2683,VALID,-0.0339617,VALID,19.6659,VALID,320,VALID,0.916602,
2000-10-29, 01:22:00,VALID,917.936,VALID,0,VALID,98.0852,VALID,0,VALID,19.6505,VALID,357,VALID,1.24219,
2000-10-29, 01:23:01,VALID,917.928,VALID,0,VALID,98.0394,VALID,0,VALID,19.6535,VALID,12,VALID,0.707812,
2000-10-29, 01:24:00,VALID,917.922,VALID,0,VALID,98.0496,VALID,0,VALID,19.6629,VALID,341,VALID,0.724159,
2000-10-29, 01:25:01,VALID,917.908,VALID,0,VALID,97.9822,VALID,0,VALID,19.6473,VALID,31,VALID,0.633203,
2000-10-29, 01:26:00,VALID,917.93,VALID,0,VALID,97.9034,VALID,0,VALID,19.6279,VALID,72,VALID,0.528783,
2000-10-29, 01:27:01,VALID,917.941,VALID,0,VALID,97.7775,VALID,0,VALID,19.6018,VALID,341,VALID,1.80547,
2000-10-29, 01:28:01,VALID,917.898,VALID,0,VALID,97.6414,VALID,0,VALID,19.6277,VALID,76,VALID,1.28686,
2000-10-29, 01:29:01,VALID,917.919,VALID,0,VALID,97.7266,VALID,0,VALID,19.6436,VALID,102,VALID,1.02852,
2000-10-29, 01:30:01,VALID,917.949,VALID,0,VALID,97.7584,VALID,-0.0169808,VALID,19.6701,VALID,201,VALID,0.233347,
2000-10-29, 01:31:01,VALID,917.937,VALID,0,VALID,97.7343,VALID,0,VALID,19.6535,VALID,154,VALID,0.824219,
2000-10-29, 01:32:01,VALID,917.917,VALID,0,VALID,97.7711,VALID,0,VALID,19.6403,VALID,82,VALID,1.67989,
2000-10-29, 01:33:01,VALID,917.892,VALID,0,VALID,97.7851,VALID,-0.0339617,VALID,19.6212,VALID,78,VALID,0.701758,
2000-10-29, 01:34:01,VALID,917.911,VALID,0.2,VALID,97.8932,VALID,-0.0169808,VALID,19.6247,VALID,114,VALID,0.751234,
2000-10-29, 01:35:01,VALID,917.911,VALID,0,VALID,97.9797,VALID,0,VALID,19.6274,VALID,94,VALID,0.719531,
2000-10-29, 01:36:01,VALID,917.907,VALID,0,VALID,98.0433,VALID,-0.0339617,VALID,19.6277,VALID,92,VALID,1.07772,
2000-10-29, 01:37:01,VALID,917.905,VALID,0.2,VALID,98.0572,VALID,-0.0169808,VALID,19.6048,VALID,97,VALID,1.44961,
2000-10-29, 01:38:01,VALID,917.91,VALID,0,VALID,98.1564,VALID,0,VALID,19.6219,VALID,88,VALID,1.44079,
2000-10-29, 01:39:01,VALID,917.909,VALID,0.2,VALID,98.2035,VALID,-0.0169808,VALID,19.6023,VALID,98,VALID,0.958203,
2000-10-29, 01:40:01,VALID,917.907,VALID,0.2,VALID,98.2518,VALID,-0.0849042,VALID,19.606,VALID,95,VALID,1.26102,
2000-10-29, 01:41:01,VALID,917.948,VALID,0.4,VALID,98.3103,VALID,-0.0169808,VALID,19.6021,VALID,99,VALID,1.65293,
2000-10-29, 01:42:01,VALID,917.926,VALID,0.4,VALID,98.3472,VALID,0,VALID,19.5789,VALID,114,VALID,0.981497,
2000-10-29, 01:43:01,VALID,917.934,VALID,0.4,VALID,98.3688,VALID,-0.0169808,VALID,19.5601,VALID,126,VALID,0.844531,
2000-10-29, 01:44:01,VALID,917.894,VALID,0.4,VALID,98.3891,VALID,-0.0339617,VALID,19.5402,VALID,94,VALID,0.945313,
2000-10-29, 01:45:01,VALID,917.874,VALID,0.4,VALID,98.4375,VALID,-0.0169808,VALID,19.5347,VALID,306,VALID,0.0791016,
2000-10-29, 01:46:01,VALID,917.868,VALID,0.4,VALID,98.4769,VALID,0,VALID,19.5084,VALID,274,VALID,0,
2000-10-29, 01:47:01,VALID,917.864,VALID,0.4,VALID,98.529,VALID,0,VALID,19.4954,VALID,330,VALID,0.000390625,
2000-10-29, 01:48:00,VALID,917.848,VALID,0.4,VALID,98.6015,VALID,0,VALID,19.5014,VALID,120,VALID,0.313702,
2000-10-29, 01:49:00,VALID,917.845,VALID,0.4,VALID,98.6447,VALID,0,VALID,19.5218,VALID,191,VALID,0.311328,
2000-10-29, 01:50:00,VALID,917.846,VALID,0.6,VALID,98.6396,VALID,-0.0509425,VALID,19.4952,VALID,169,VALID,0.455592,
2000-10-29, 01:51:00,VALID,917.783,VALID,0.4,VALID,98.6447,VALID,-0.0169808,VALID,19.4795,VALID,91,VALID,1.17559,
2000-10-29, 01:52:00,VALID,917.734,VALID,0.4,VALID,98.6892,VALID,-0.0169808,VALID,19.453,VALID,97,VALID,1.65925,
2000-10-29, 01:53:00,VALID,917.661,VALID,0,VALID,98.7401,VALID,0,VALID,19.443,VALID,90,VALID,1.22734,
2000-10-29, 01:54:00,VALID,917.572,VALID,0.2,VALID,98.7732,VALID,-0.0339617,VALID,19.441,VALID,73,VALID,1.24609,
2000-10-29, 01:55:00,VALID,917.514,VALID,0,VALID,98.7655,VALID,0,VALID,19.408,VALID,71,VALID,1.74629,
2000-10-29, 01:56:00,VALID,917.503,VALID,0.2,VALID,98.6956,VALID,0,VALID,19.3531,VALID,357,VALID,1.38181,
2000-10-29, 01:57:00,VALID,917.581,VALID,0,VALID,98.6371,VALID,0,VALID,19.3272,VALID,282,VALID,1.14688,
2000-10-29, 01:58:00,VALID,917.613,VALID,0,VALID,98.721,VALID,0.0169808,VALID,19.3662,VALID,274,VALID,1.02858,
2000-10-29, 01:59:00,VALID,917.596,VALID,0,VALID,98.7541,VALID,0,VALID,19.3692,VALID,274,VALID,1.05938,
2000-10-29, 02:00:00,VALID,917.555,VALID,0.2,VALID,98.7668,VALID,-0.0169808,VALID,19.3759,VALID,295,VALID,0.585136,
2000-10-29, 02:01:00,VALID,917.565,VALID,0,VALID,98.7859,VALID,0.0169808,VALID,19.3628,VALID,83,VALID,0.692187,
2000-10-29, 02:02:00,VALID,917.562,VALID,0,VALID,98.7999,VALID,-0.0169808,VALID,19.3568,VALID,96,VALID,0.987664,
2000-10-29, 02:03:00,VALID,917.536,VALID,0,VALID,98.8139,VALID,0,VALID,19.3533,VALID,88,VALID,0.337109,
2000-10-29, 02:04:00,VALID,917.519,VALID,0.2,VALID,98.8749,VALID,0,VALID,19.3759,VALID,94,VALID,0.89984,
2000-10-29, 02:05:00,VALID,917.51,VALID,0,VALID,98.913,VALID,0,VALID,19.3886,VALID,108,VALID,0.418164,
2000-10-29, 02:06:00,VALID,917.504,VALID,0,VALID,98.9181,VALID,0,VALID,19.3787,VALID,102,VALID,0.833265,
2000-10-29, 02:07:00,VALID,917.492,VALID,0,VALID,98.9563,VALID,0,VALID,19.3916,VALID,105,VALID,0.919141,
2000-10-29, 02:08:00,VALID,917.478,VALID,0,VALID,98.9766,VALID,0.0339617,VALID,19.408,VALID,95,VALID,0.651242,
2000-10-29, 02:09:00,VALID,917.436,VALID,0.2,VALID,98.9944,VALID,0.0169808,VALID,19.4018,VALID,85,VALID,0.691211,
2000-10-29, 02:10:00,VALID,917.418,VALID,0,VALID,99.0084,VALID,-0.0169808,VALID,19.4085,VALID,114,VALID,0.407072,
2000-10-29, 02:11:00,VALID,917.395,VALID,0,VALID,99.0173,VALID,-0.0169808,VALID,19.4085,VALID,214,VALID,0.397852,
2000-10-29, 02:12:00,VALID,917.377,VALID,0,VALID,99.002,VALID,0,VALID,19.3757,VALID,262,VALID,0.540665,
2000-10-29, 02:13:00,VALID,917.361,VALID,0,VALID,99.0135,VALID,0,VALID,19.3762,VALID,272,VALID,0.0660156,
2000-10-29, 02:14:00,VALID,917.34,VALID,0,VALID,99.0313,VALID,0,VALID,19.3662,VALID,271,VALID,0,
2000-10-29, 02:15:00,VALID,917.313,VALID,0,VALID,99.0504,VALID,0,VALID,19.3826,VALID,276,VALID,0.000585938,
2000-10-29, 02:16:00,VALID,917.275,VALID,0.2,VALID,99.044,VALID,0,VALID,19.3729,VALID,5,VALID,0.19391,
2000-10-29, 02:17:00,VALID,917.236,VALID,0,VALID,99.0529,VALID,0,VALID,19.3565,VALID,100,VALID,1.15156,
2000-10-29, 02:18:00,VALID,917.207,VALID,0,VALID,99.072,VALID,-0.0339617,VALID,19.3637,VALID,113,VALID,0.677015,
2000-10-29, 02:19:00,VALID,917.193,VALID,0,VALID,99.0911,VALID,-0.0169808,VALID,19.3598,VALID,96,VALID,0.636914,
2000-10-29, 02:20:00,VALID,917.189,VALID,0,VALID,99.0987,VALID,-0.0169808,VALID,19.3632,VALID,105,VALID,0.253205,
2000-10-29, 02:21:00,VALID,917.159,VALID,0,VALID,99.1216,VALID,0,VALID,19.3568,VALID,109,VALID,0.0152344,
2000-10-29, 02:22:00,VALID,917.154,VALID,0,VALID,99.1241,VALID,0,VALID,19.3799,VALID,134,VALID,0.00102796,
2000-10-29, 02:23:00,VALID,917.141,VALID,0,VALID,99.1139,VALID,-0.0339617,VALID,19.3737,VALID,234,VALID,0,
2000-10-29, 02:24:00,VALID,917.132,VALID,0,VALID,99.1114,VALID,0,VALID,19.3411,VALID,228,VALID,0,
2000-10-29, 02:25:00,VALID,917.113,VALID,0,VALID,99.1127,VALID,-0.0169808,VALID,19.3376,VALID,233,VALID,0,
2000-10-29, 02:26:00,VALID,917.097,VALID,0,VALID,99.105,VALID,-0.0509425,VALID,19.315,VALID,237,VALID,0,
2000-10-29, 02:27:00,VALID,917.086,VALID,0,VALID,99.1203,VALID,-0.0169808,VALID,19.2984,VALID,241,VALID,0,
2000-10-29, 02:28:00,VALID,917.094,VALID,0,VALID,99.1457,VALID,-0.0169808,VALID,19.3158,VALID,239,VALID,0,
2000-10-29, 02:29:00,VALID,917.089,VALID,0,VALID,99.1559,VALID,-0.0169808,VALID,19.3019,VALID,234,VALID,0,
2000-10-29, 02:30:00,VALID,917.075,VALID,0,VALID,99.1635,VALID,-0.0339617,VALID,19.3113,VALID,233,VALID,0.539679,
2000-10-29, 02:31:00,VALID,917.042,VALID,0,VALID,99.1546,VALID,-0.0339617,VALID,19.3053,VALID,232,VALID,0.792383,
2000-10-29, 02:32:00,VALID,917.032,VALID,0,VALID,99.1661,VALID,-0.0339617,VALID,19.3185,VALID,262,VALID,0.332532,
2000-10-29, 02:33:00,VALID,917.037,VALID,0,VALID,99.1839,VALID,-0.0509425,VALID,19.3153,VALID,245,VALID,0.466211,
2000-10-29, 02:34:00,VALID,917.017,VALID,0,VALID,99.1826,VALID,0,VALID,19.3155,VALID,225,VALID,0.892681,
2000-10-29, 02:35:00,VALID,916.986,VALID,0,VALID,99.1724,VALID,-0.0339617,VALID,19.2991,VALID,227,VALID,0.608398,
2000-10-29, 02:36:00,VALID,916.948,VALID,0,VALID,99.1826,VALID,0.0169808,VALID,19.2892,VALID,226,VALID,0.777444,
2000-10-29, 02:37:00,VALID,916.928,VALID,0,VALID,99.1686,VALID,-0.0169808,VALID,19.2733,VALID,205,VALID,0.218164,
2000-10-29, 02:38:00,VALID,916.917,VALID,0,VALID,99.1877,VALID,0,VALID,19.2532,VALID,215,VALID,0,
2000-10-29, 02:39:00,VALID,916.912,VALID,0,VALID,99.1839,VALID,-0.0509425,VALID,19.2509,VALID,215,VALID,0,
2000-10-29, 02:40:00,VALID,916.898,VALID,0,VALID,99.2169,VALID,-0.0679233,VALID,19.2442,VALID,187,VALID,0,
2000-10-29, 02:41:00,VALID,916.887,VALID,0,VALID,99.2246,VALID,-0.0169808,VALID,19.2509,VALID,168,VALID,0,
2000-10-29, 02:42:00,VALID,916.893,VALID,0,VALID,99.2144,VALID,-0.0339617,VALID,19.2373,VALID,169,VALID,0,
2000-10-29, 02:43:00,VALID,916.879,VALID,0,VALID,99.2169,VALID,-0.0169808,VALID,19.2412,VALID,172,VALID,0,
2000-10-29, 02:44:00,VALID,916.861,VALID,0,VALID,99.2119,VALID,-0.0169808,VALID,19.2248,VALID,172,VALID,0,
2000-10-29, 02:45:00,VALID,916.832,VALID,0,VALID,99.2169,VALID,-0.0169808,VALID,19.2218,VALID,172,VALID,0,
2000-10-29, 02:46:00,VALID,916.828,VALID,0,VALID,99.2157,VALID,0,VALID,19.2184,VALID,181,VALID,0,
2000-10-29, 02:47:00,VALID,916.814,VALID,0,VALID,99.222,VALID,-0.0849042,VALID,19.196,VALID,195,VALID,0,
2000-10-29, 02:48:00,VALID,916.808,VALID,0,VALID,99.2284,VALID,-0.0679233,VALID,19.1997,VALID,181,VALID,0,
2000-10-29, 02:49:00,VALID,916.805,VALID,0,VALID,99.2195,VALID,-0.0849042,VALID,19.1768,VALID,179,VALID,0,
2000-10-29, 02:50:00,VALID,916.799,VALID,0,VALID,99.2347,VALID,-0.0849042,VALID,19.1806,VALID,179,VALID,0,
2000-10-29, 02:51:00,VALID,916.806,VALID,0,VALID,99.2487,VALID,-0.101885,VALID,19.184,VALID,185,VALID,0,
2000-10-29, 02:52:00,VALID,916.831,VALID,0,VALID,99.2576,VALID,-0.0509425,VALID,19.1766,VALID,204,VALID,0,
2000-10-29, 02:53:00,VALID,916.852,VALID,0,VALID,99.264,VALID,-0.101885,VALID,19.1868,VALID,208,VALID,0,
2000-10-29, 02:54:00,VALID,916.857,VALID,0,VALID,99.2843,VALID,-0.0849042,VALID,19.1999,VALID,203,VALID,0,
2000-10-29, 02:55:00,VALID,916.846,VALID,0,VALID,99.2754,VALID,-0.101885,VALID,19.1965,VALID,196,VALID,0,
2000-10-29, 02:56:00,VALID,916.845,VALID,0,VALID,99.2627,VALID,-0.0849042,VALID,19.1838,VALID,192,VALID,0,
2000-10-29, 02:57:00,VALID,916.838,VALID,0,VALID,99.2589,VALID,-0.101885,VALID,19.1709,VALID,186,VALID,0,
2000-10-29, 02:58:00,VALID,916.83,VALID,0,VALID,99.2767,VALID,-0.0679233,VALID,19.1547,VALID,189,VALID,0.516859,
2000-10-29, 02:59:00,VALID,916.831,VALID,0,VALID,99.2678,VALID,-0.0849042,VALID,19.1483,VALID,188,VALID,0.61875,
2000-10-29, 03:00:00,VALID,916.829,VALID,0,VALID,99.2869,VALID,-0.101885,VALID,19.1587,VALID,195,VALID,0.588742,
2000-10-29, 03:01:00,VALID,916.83,VALID,0,VALID,99.3047,VALID,-0.101885,VALID,19.1614,VALID,204,VALID,0.393164,
2000-10-29, 03:02:00,VALID,916.837,VALID,0,VALID,99.3098,VALID,-0.0679233,VALID,19.1711,VALID,198,VALID,0.000205592,
2000-10-29, 03:03:00,VALID,916.83,VALID,0,VALID,99.3174,VALID,-0.118866,VALID,19.1676,VALID,212,VALID,0.533984,
2000-10-29, 03:04:00,VALID,916.844,VALID,0,VALID,99.3225,VALID,-0.101885,VALID,19.1646,VALID,184,VALID,0.233574,
2000-10-29, 03:05:00,VALID,916.851,VALID,0,VALID,99.3365,VALID,-0.0849042,VALID,19.1768,VALID,180,VALID,0,
2000-10-29, 03:06:00,VALID,916.848,VALID,0,VALID,99.3136,VALID,-0.0679233,VALID,19.1607,VALID,173,VALID,0.00123355,
2000-10-29, 03:07:00,VALID,916.831,VALID,0,VALID,99.3174,VALID,-0.0509425,VALID,19.1642,VALID,164,VALID,0,
2000-10-29, 03:08:00,VALID,916.81,VALID,0,VALID,99.3187,VALID,-0.101885,VALID,19.1579,VALID,163,VALID,0,
2000-10-29, 03:09:00,VALID,916.807,VALID,0,VALID,99.3161,VALID,-0.0679233,VALID,19.1512,VALID,152,VALID,0,
2000-10-29, 03:10:00,VALID,916.773,VALID,0,VALID,99.3123,VALID,-0.0849042,VALID,19.1545,VALID,148,VALID,0,
2000-10-29, 03:11:00,VALID,916.764,VALID,0,VALID,99.3047,VALID,-0.0679233,VALID,19.1346,VALID,154,VALID,0,
2000-10-29, 03:12:00,VALID,916.757,VALID,0,VALID,99.3098,VALID,-0.0339617,VALID,19.1286,VALID,160,VALID,0,
2000-10-29, 03:13:00,VALID,916.752,VALID,0,VALID,99.3021,VALID,-0.0679233,VALID,19.1155,VALID,179,VALID,0,
2000-10-29, 03:14:00,VALID,916.734,VALID,0,VALID,99.3136,VALID,-0.0339617,VALID,19.1063,VALID,182,VALID,0,
2000-10-29, 03:15:00,VALID,916.705,VALID,0,VALID,99.3339,VALID,-0.101885,VALID,19.113,VALID,174,VALID,0,
2000-10-29, 03:16:00,VALID,916.699,VALID,0,VALID,99.3327,VALID,-0.0679233,VALID,19.0998,VALID,172,VALID,0,
2000-10-29, 03:17:00,VALID,916.694,VALID,0,VALID,99.3377,VALID,-0.0169808,VALID,19.109,VALID,163,VALID,0,
2000-10-29, 03:18:00,VALID,916.697,VALID,0,VALID,99.3377,VALID,0.0339617,VALID,19.1053,VALID,153,VALID,0,
2000-10-29, 03:19:00,VALID,916.698,VALID,0,VALID,99.3543,VALID,0.0339617,VALID,19.0981,VALID,162,VALID,0,
2000-10-29, 03:20:00,VALID,916.706,VALID,0,VALID,99.3568,VALID,0.0169808,VALID,19.0914,VALID,169,VALID,0,
2000-10-29, 03:21:00,VALID,916.691,VALID,0,VALID,99.3619,VALID,0.0509425,VALID,19.0887,VALID,175,VALID,0,
2000-10-29, 03:22:00,VALID,916.695,VALID,0,VALID,99.3746,VALID,0,VALID,19.0919,VALID,203,VALID,0,
2000-10-29, 03:23:00,VALID,916.673,VALID,0,VALID,99.3797,VALID,0,VALID,19.1018,VALID,201,VALID,0,
2000-10-29, 03:24:00,VALID,916.665,VALID,0,VALID,99.4039,VALID,0.0339617,VALID,19.1048,VALID,199,VALID,0,
2000-10-29, 03:25:00,VALID,916.653,VALID,0,VALID,99.4026,VALID,0.0169808,VALID,19.1046,VALID,199,VALID,0.525391,
2000-10-29, 03:26:00,VALID,916.627,VALID,0,VALID,99.4003,VALID,0,VALID,19.1046,VALID,198,VALID,0.697852,
2000-10-29, 03:27:00,VALID,916.618,VALID,0,VALID,99.409,VALID,-0.0169808,VALID,19.1113,VALID,196,VALID,0.532617,
2000-10-29, 03:28:00,VALID,916.606,VALID,0,VALID,99.4013,VALID,0,VALID,19.1152,VALID,191,VALID,0.440304,
2000-10-29, 03:29:00,VALID,916.588,VALID,0,VALID,99.4166,VALID,0,VALID,19.1187,VALID,200,VALID,0.358594,
2000-10-29, 03:30:00,VALID,916.585,VALID,0,VALID,99.4166,VALID,0.0169808,VALID,19.1147,VALID,224,VALID,0.519326,
2000-10-29, 03:31:00,VALID,916.572,VALID,0,VALID,99.4128,VALID,0.0169808,VALID,19.1145,VALID,230,VALID,0.64668,
2000-10-29, 03:32:00,VALID,916.554,VALID,0,VALID,99.4115,VALID,-0.0509425,VALID,19.1321,VALID,216,VALID,0.666867,
2000-10-29, 03:33:00,VALID,916.554,VALID,0,VALID,99.3912,VALID,-0.0849042,VALID,19.1063,VALID,189,VALID,0.799805,
2000-10-29, 03:34:00,VALID,916.552,VALID,0,VALID,99.3835,VALID,-0.0679233,VALID,19.113,VALID,154,VALID,0.78125,
2000-10-29, 03:35:00,VALID,916.548,VALID,0,VALID,99.3924,VALID,-0.0679233,VALID,19.1229,VALID,132,VALID,0.82793,
2000-10-29, 03:36:00,VALID,916.567,VALID,0,VALID,99.381,VALID,-0.0849042,VALID,19.1256,VALID,123,VALID,0.596154,